Time,TemperatureF,DewpointF,PressureIn,WindDirection,WindDirectionDegrees,WindSpeedMPH,WindSpeedGustMPH,Humidity,HourlyPrecipIn,Conditions,Clouds,dailyrainin,SoftwareType,DateUTC
2013-11-30 00:07:00,31.2,25.0,30.39,East,81,1.0,1.0,78,0.00,,,0.00,weatherlink.com 1.10,2013-11-30 06:07:00,
2013-11-30 00:22:00,31.1,25.0,30.38,East,81,1.0,2.0,79,0.00,,,0.00,weatherlink.com 1.10,2013-11-30 06:22:00,
2013-11-30 00:37:00,31.3,26.0,30.38,East,99,2.0,3.0,79,0.00,,,0.00,weatherlink.com 1.10,2013-11-30 06:37:00,
2013-11-30 00:53:00,31.6,26.0,30.37,SE,131,1.0,7.0,79,0.00,,,0.00,weatherlink.com 1.10,2013-11-30 06:53:00,
2013-11-30 01:08:00,32.0,26.0,30.36,SSE,153,2.0,4.0,79,0.00,,,0.00,weatherlink.com 1.10,2013-11-30 07:08:00,
2013-11-30 01:23:00,32.1,26.0,30.36,SE,136,1.0,6.0,79,0.00,,,0.00,weatherlink.com 1.10,2013-11-30 07:23:00,
2013-11-30 01:38:00,31.8,26.0,30.36,SE,144,1.0,2.0,80,0.00,,,0.00,weatherlink.com 1.10,2013-11-30 07:38:00,
2013-11-30 01:53:00,31.7,26.0,30.35,SE,140,1.0,3.0,80,0.00,,,0.00,weatherlink.com 1.10,2013-11-30 07:53:00,
2013-11-30 02:08:00,31.4,26.0,30.35,SE,124,1.0,2.0,80,0.00,,,0.00,weatherlink.com 1.10,2013-11-30 08:08:00,
2013-11-30 02:23:00,31.3,26.0,30.35,SE,141,2.0,3.0,81,0.00,,,0.00,weatherlink.com 1.10,2013-11-30 08:23:00,
2013-11-30 02:38:00,30.9,26.0,30.35,ESE,115,1.0,2.0,82,0.00,,,0.00,weatherlink.com 1.10,2013-11-30 08:38:00,
2013-11-30 02:53:00,31.0,26.0,30.34,SE,146,1.0,3.0,83,0.00,,,0.00,weatherlink.com 1.10,2013-11-30 08:53:00,
2013-11-30 03:08:00,31.2,27.0,30.34,SE,143,2.0,5.0,83,0.00,,,0.00,weatherlink.com 1.10,2013-11-30 09:08:00,
2013-11-30 03:23:00,30.9,27.0,30.33,ESE,121,1.0,3.0,84,0.00,,,0.00,weatherlink.com 1.10,2013-11-30 09:23:00,
2013-11-30 03:38:00,30.9,27.0,30.32,SE,140,2.0,3.0,85,0.00,,,0.00,weatherlink.com 1.10,2013-11-30 09:38:00,
2013-11-30 03:53:00,30.6,27.0,30.32,SE,136,2.0,2.0,85,0.00,,,0.00,weatherlink.com 1.10,2013-11-30 09:53:00,
2013-11-30 04:08:00,30.5,27.0,30.32,SSE,158,2.0,4.0,86,0.00,,,0.00,weatherlink.com 1.10,2013-11-30 10:08:00,
2013-11-30 04:23:00,30.6,27.0,30.31,SSE,148,1.0,3.0,86,0.00,,,0.00,weatherlink.com 1.10,2013-11-30 10:23:00,
2013-11-30 04:38:00,30.5,27.0,30.30,SE,136,1.0,3.0,86,0.00,,,0.00,weatherlink.com 1.10,2013-11-30 10:38:00,
2013-11-30 04:53:00,30.6,27.0,30.30,SSE,152,3.0,6.0,87,0.00,,,0.00,weatherlink.com 1.10,2013-11-30 10:53:00,
2013-11-30 05:09:00,30.8,27.0,30.30,South,173,3.0,7.0,87,0.00,,,0.00,weatherlink.com 1.10,2013-11-30 11:09:00,
2013-11-30 05:24:00,30.5,27.0,30.30,SE,143,2.0,5.0,87,0.00,,,0.00,weatherlink.com 1.10,2013-11-30 11:24:00,
2013-11-30 05:39:00,30.6,27.0,30.30,SSE,148,2.0,6.0,87,0.00,,,0.00,weatherlink.com 1.10,2013-11-30 11:39:00,
2013-11-30 05:54:00,30.7,28.0,30.30,SSE,152,3.0,7.0,88,0.00,,,0.00,weatherlink.com 1.10,2013-11-30 11:54:00,
2013-11-30 06:09:00,30.5,27.0,30.30,SSE,165,4.0,7.0,88,0.00,,,0.00,weatherlink.com 1.10,2013-11-30 12:09:00,
2013-11-30 06:24:00,30.3,27.0,30.30,SE,144,2.0,5.0,88,0.00,,,0.00,weatherlink.com 1.10,2013-11-30 12:24:00,
2013-11-30 06:39:00,30.3,27.0,30.29,SE,127,2.0,6.0,88,0.00,,,0.00,weatherlink.com 1.10,2013-11-30 12:39:00,
2013-11-30 06:54:00,30.2,27.0,30.29,South,174,3.0,6.0,89,0.00,,,0.00,weatherlink.com 1.10,2013-11-30 12:54:00,
2013-11-30 07:09:00,30.2,27.0,30.29,SSE,149,2.0,6.0,89,0.00,,,0.00,weatherlink.com 1.10,2013-11-30 13:09:00,
2013-11-30 07:24:00,30.2,27.0,30.28,SE,136,2.0,5.0,89,0.00,,,0.00,weatherlink.com 1.10,2013-11-30 13:24:00,
2013-11-30 07:39:00,30.8,28.0,30.28,SSE,159,2.0,6.0,88,0.00,,,0.00,weatherlink.com 1.10,2013-11-30 13:39:00,
2013-11-30 07:54:00,31.4,28.0,30.28,SSE,150,2.0,7.0,88,0.00,,,0.00,weatherlink.com 1.10,2013-11-30 13:54:00,
2013-11-30 08:09:00,32.2,29.0,30.28,SSE,160,5.0,7.0,87,0.00,,,0.00,weatherlink.com 1.10,2013-11-30 14:09:00,
2013-11-30 08:24:00,33.2,30.0,30.27,SSE,147,4.0,11.0,86,0.00,,,0.00,weatherlink.com 1.10,2013-11-30 14:24:00,
2013-11-30 08:39:00,33.8,30.0,30.27,SSE,158,8.0,9.0,85,0.00,,,0.00,weatherlink.com 1.10,2013-11-30 14:39:00,
2013-11-30 08:54:00,34.7,30.0,30.27,South,173,8.0,11.0,84,0.00,,,0.00,weatherlink.com 1.10,2013-11-30 14:54:00,
2013-11-30 09:09:00,36.0,31.0,30.27,South,188,7.0,10.0,82,0.00,,,0.00,weatherlink.com 1.10,2013-11-30 15:09:00,
2013-11-30 09:24:00,37.2,31.0,30.27,SW,218,7.0,12.0,79,0.00,,,0.00,weatherlink.com 1.10,2013-11-30 15:24:00,
2013-11-30 09:39:00,38.3,32.0,30.26,ESE,117,3.0,10.0,78,0.00,,,0.00,weatherlink.com 1.10,2013-11-30 15:39:00,
2013-11-30 09:55:00,39.3,32.0,30.26,South,173,4.0,13.0,74,0.00,,,0.00,weatherlink.com 1.10,2013-11-30 15:55:00,
2013-11-30 10:11:00,40.6,33.0,30.25,SSE,153,5.0,9.0,73,0.00,,,0.00,weatherlink.com 1.10,2013-11-30 16:11:00,
2013-11-30 10:25:00,41.9,33.0,30.25,WSW,238,8.0,14.0,71,0.00,,,0.00,weatherlink.com 1.10,2013-11-30 16:25:00,
2013-11-30 10:40:00,43.3,33.0,30.23,SSW,200,4.0,13.0,67,0.00,,,0.00,weatherlink.com 1.10,2013-11-30 16:40:00,
2013-11-30 10:55:00,44.3,33.0,30.22,SW,225,8.0,14.0,64,0.00,,,0.00,weatherlink.com 1.10,2013-11-30 16:55:00,
2013-11-30 11:10:00,45.0,33.0,30.22,WSW,255,6.0,14.0,63,0.00,,,0.00,weatherlink.com 1.10,2013-11-30 17:10:00,
2013-11-30 11:25:00,45.7,33.0,30.21,SW,222,10.0,12.0,62,0.00,,,0.00,weatherlink.com 1.10,2013-11-30 17:25:00,
2013-11-30 11:40:00,46.4,34.0,30.20,SSW,211,7.0,12.0,62,0.00,,,0.00,weatherlink.com 1.10,2013-11-30 17:40:00,
2013-11-30 11:55:00,47.3,34.0,30.18,SW,224,10.0,10.0,61,0.00,,,0.00,weatherlink.com 1.10,2013-11-30 17:55:00,
2013-11-30 12:10:00,48.0,35.0,30.18,SW,232,5.0,11.0,60,0.00,,,0.00,weatherlink.com 1.10,2013-11-30 18:10:00,
2013-11-30 12:25:00,49.0,35.0,30.16,West,271,2.0,12.0,59,0.00,,,0.00,weatherlink.com 1.10,2013-11-30 18:25:00,
2013-11-30 12:40:00,49.3,35.0,30.16,ESE,121,3.0,12.0,59,0.00,,,0.00,weatherlink.com 1.10,2013-11-30 18:40:00,
2013-11-30 12:56:00,50.0,36.0,30.15,SW,236,7.0,8.0,58,0.00,,,0.00,weatherlink.com 1.10,2013-11-30 18:56:00,
2013-11-30 13:11:00,50.7,36.0,30.14,SSW,200,3.0,10.0,57,0.00,,,0.00,weatherlink.com 1.10,2013-11-30 19:11:00,
2013-11-30 13:26:00,51.3,36.0,30.14,South,174,7.0,12.0,56,0.00,,,0.00,weatherlink.com 1.10,2013-11-30 19:26:00,
2013-11-30 13:41:00,51.7,36.0,30.12,WSW,250,5.0,10.0,56,0.00,,,0.00,weatherlink.com 1.10,2013-11-30 19:41:00,
2013-11-30 13:56:00,52.2,36.0,30.12,SSW,207,3.0,12.0,55,0.00,,,0.00,weatherlink.com 1.10,2013-11-30 19:56:00,
2013-11-30 14:11:00,52.3,37.0,30.11,SSW,200,7.0,13.0,56,0.00,,,0.00,weatherlink.com 1.10,2013-11-30 20:11:00,
2013-11-30 14:26:00,52.6,37.0,30.10,SSE,155,9.0,13.0,55,0.00,,,0.00,weatherlink.com 1.10,2013-11-30 20:26:00,
2013-11-30 14:41:00,52.4,37.0,30.10,SW,231,7.0,13.0,56,0.00,,,0.00,weatherlink.com 1.10,2013-11-30 20:41:00,
2013-11-30 14:57:00,52.7,37.0,30.09,SSE,154,4.0,11.0,56,0.00,,,0.00,weatherlink.com 1.10,2013-11-30 20:57:00,
2013-11-30 15:11:00,52.7,37.0,30.09,South,170,4.0,11.0,56,0.00,,,0.00,weatherlink.com 1.10,2013-11-30 21:11:00,
2013-11-30 15:26:00,52.6,37.0,30.09,SW,236,5.0,11.0,56,0.00,,,0.00,weatherlink.com 1.10,2013-11-30 21:26:00,
2013-11-30 15:41:00,52.5,37.0,30.09,South,181,6.0,11.0,57,0.00,,,0.00,weatherlink.com 1.10,2013-11-30 21:41:00,
2013-11-30 15:56:00,52.0,37.0,30.10,West,260,5.0,9.0,57,0.00,,,0.00,weatherlink.com 1.10,2013-11-30 21:56:00,
2013-11-30 16:11:00,51.4,37.0,30.10,WSW,252,6.0,9.0,59,0.00,,,0.00,weatherlink.com 1.10,2013-11-30 22:11:00,
2013-11-30 16:26:00,50.7,37.0,30.10,SW,224,3.0,6.0,60,0.00,,,0.00,weatherlink.com 1.10,2013-11-30 22:26:00,
2013-11-30 16:41:00,49.9,37.0,30.10,South,172,4.0,4.0,61,0.00,,,0.00,weatherlink.com 1.10,2013-11-30 22:41:00,
2013-11-30 16:56:00,49.3,37.0,30.10,SSW,197,3.0,5.0,62,0.00,,,0.00,weatherlink.com 1.10,2013-11-30 22:56:00,
2013-11-30 17:11:00,48.9,37.0,30.11,SSW,208,3.0,5.0,63,0.00,,,0.00,weatherlink.com 1.10,2013-11-30 23:11:00,
2013-11-30 17:26:00,48.5,37.0,30.11,SSW,207,2.0,3.0,64,0.00,,,0.00,weatherlink.com 1.10,2013-11-30 23:26:00,
2013-11-30 17:41:00,48.0,37.0,30.12,SSW,212,0.0,3.0,65,0.00,,,0.00,weatherlink.com 1.10,2013-11-30 23:41:00,
2013-11-30 17:56:00,47.6,37.0,30.12,SW,233,1.0,2.0,66,0.00,,,0.00,weatherlink.com 1.10,2013-11-30 23:56:00,
2013-11-30 18:11:00,47.0,36.0,30.12,WSW,256,1.0,2.0,67,0.00,,,0.00,weatherlink.com 1.10,2013-12-01 00:11:00,
2013-11-30 18:26:00,47.3,37.0,30.12,SE,129,1.0,3.0,67,0.00,,,0.00,weatherlink.com 1.10,2013-12-01 00:26:00,
2013-11-30 18:41:00,46.9,37.0,30.11,SW,217,1.0,2.0,68,0.00,,,0.00,weatherlink.com 1.10,2013-12-01 00:41:00,
2013-11-30 18:56:00,46.4,37.0,30.12,SW,218,0.0,1.0,69,0.00,,,0.00,weatherlink.com 1.10,2013-12-01 00:56:00,
2013-11-30 19:11:00,45.6,36.0,30.12,SW,218,0.0,0.0,70,0.00,,,0.00,weatherlink.com 1.10,2013-12-01 01:11:00,
2013-11-30 19:26:00,45.6,37.0,30.11,SW,218,0.0,1.0,71,0.00,,,0.00,weatherlink.com 1.10,2013-12-01 01:26:00,
2013-11-30 19:41:00,45.8,37.0,30.11,WSW,253,1.0,3.0,71,0.00,,,0.00,weatherlink.com 1.10,2013-12-01 01:41:00,
2013-11-30 19:56:00,44.8,37.0,30.11,SW,235,0.0,1.0,73,0.00,,,0.00,weatherlink.com 1.10,2013-12-01 01:56:00,
2013-11-30 20:11:00,43.8,36.0,30.11,SW,235,0.0,0.0,73,0.00,,,0.00,weatherlink.com 1.10,2013-12-01 02:11:00,
2013-11-30 20:26:00,42.1,35.0,30.11,SW,234,0.0,0.0,77,0.00,,,0.00,weatherlink.com 1.10,2013-12-01 02:26:00,
2013-11-30 20:41:00,41.2,36.0,30.11,SW,234,1.0,1.0,81,0.00,,,0.00,weatherlink.com 1.10,2013-12-01 02:41:00,
2013-11-30 20:56:00,42.2,36.0,30.11,SW,235,0.0,1.0,78,0.00,,,0.00,weatherlink.com 1.10,2013-12-01 02:56:00,
2013-11-30 21:11:00,42.6,37.0,30.11,SW,222,1.0,2.0,79,0.00,,,0.00,weatherlink.com 1.10,2013-12-01 03:11:00,
2013-11-30 21:26:00,42.7,36.0,30.11,WSW,248,0.0,2.0,78,0.00,,,0.00,weatherlink.com 1.10,2013-12-01 03:26:00,
2013-11-30 21:41:00,42.7,36.0,30.11,West,275,0.0,2.0,78,0.00,,,0.00,weatherlink.com 1.10,2013-12-01 03:41:00,
2013-11-30 21:56:00,41.5,36.0,30.11,West,275,0.0,0.0,80,0.00,,,0.00,weatherlink.com 1.10,2013-12-01 03:56:00,
2013-11-30 22:12:00,40.6,36.0,30.11,West,276,0.0,0.0,82,0.00,,,0.00,weatherlink.com 1.10,2013-12-01 04:12:00,
2013-11-30 22:27:00,40.0,36.0,30.11,West,276,0.0,1.0,84,0.00,,,0.00,weatherlink.com 1.10,2013-12-01 04:27:00,
2013-11-30 22:42:00,40.6,36.0,30.11,West,276,0.0,1.0,83,0.00,,,0.00,weatherlink.com 1.10,2013-12-01 04:42:00,
2013-11-30 22:57:00,40.3,35.0,30.11,West,275,0.0,1.0,82,0.00,,,0.00,weatherlink.com 1.10,2013-12-01 04:57:00,
2013-11-30 23:12:00,39.6,35.0,30.11,West,276,1.0,2.0,82,0.00,,,0.00,weatherlink.com 1.10,2013-12-01 05:12:00,
2013-11-30 23:27:00,38.8,34.0,30.11,West,271,0.0,1.0,84,0.00,,,0.00,weatherlink.com 1.10,2013-12-01 05:27:00,
2013-11-30 23:42:00,37.8,34.0,30.11,West,271,0.0,1.0,86,0.00,,,0.00,weatherlink.com 1.10,2013-12-01 05:42:00,
2013-11-30 23:57:00,37.0,34.0,30.11,West,271,0.0,1.0,88,0.00,,,0.00,weatherlink.com 1.10,2013-12-01 05:57:00,